Weather History for Port Angeles, WA

Change the Weather History Date:

Thursday, August 9, 2012

  Actual Average Record
Temperature  
Mean Temperature 62 °F -  
Max Temperature 70 °F 72 °F 94 °F (1981)
Min Temperature 54 °F 53 °F 43 °F (1959)
Degree Days  
Heating Degree Days 3    
Growing Degree Days 12 (Base 50)    
Moisture  
Dew Point 54 °F    
Average Humidity 74    
Maximum Humidity 90    
Minimum Humidity 58    
Precipitation  
Precipitation 0.00 in - - ()
Sea Level Pressure  
Sea Level Pressure 30.18 in    
Wind  
Wind Speed 5 mph (NW)    
Max Wind Speed 12 mph    
Max Gust Speed -    
Visibility 10 miles    
Events      
Averages and records for this station are not official NWS values.
T = Trace of Precipitation, MM = Missing Value Source: NWS Daily Summary

Daily Weather History Graph

Daily Weather History Graph

Search for Another Location

Airport:

Trip Planner

Search our weather history database for the weather conditions in past years. The results will help you decide how hot, cold, wet, or windy it might be!

Date:

Astronomy

Aug. 09, 2012 Rise Set
Actual Time 6:01 AM PDT 8:36 PM PDT
Civil Twilight 5:26 AM PDT 9:11 PM PDT
Nautical Twilight 4:41 AM PDT 9:55 PM PDT
Astronomical Twilight 3:49 AM PDT 10:47 PM PDT
Moon 11:49 PM PDT (8/9) 2:30 PM PDT (8/9)
Length of Visible Light 15h 45m
Length of Day
14h 35m
Waning Gibbous, 50% of the Moon is Illuminated
Aug 9
Waning Gibbous
Aug 17
New
Aug 24
First Quarter
Aug 31
Full
Sep 8
Last Quarter

Hourly Weather History & Observations

Time (PDT) Temp. Dew Point Humidity Pressure Visibility Wind Dir Wind Speed Gust Speed Precip Events Conditions
12:53 AM 59.0 °F 55.0 °F 87% 30.23 in 10.0 mi NW 4.6 mph - N/A   Overcast
1:53 AM 59.0 °F 55.9 °F 90% 30.23 in 10.0 mi NW 3.5 mph - N/A   Overcast
2:53 AM 61.0 °F 55.9 °F 83% 30.22 in 10.0 mi West 6.9 mph - N/A   Overcast
3:53 AM 61.0 °F 55.9 °F 83% 30.21 in 10.0 mi West 3.5 mph - N/A   Overcast
4:53 AM 61.0 °F 55.9 °F 83% 30.21 in 10.0 mi Calm Calm - N/A   Overcast
5:53 AM 59.0 °F 55.9 °F 90% 30.21 in 10.0 mi Calm Calm - N/A   Overcast
6:53 AM 57.9 °F 54.0 °F 87% 30.21 in 10.0 mi Calm Calm - N/A   Overcast
7:53 AM 57.9 °F 55.0 °F 90% 30.21 in 10.0 mi NW 4.6 mph - N/A   Overcast
8:53 AM 63.0 °F 55.0 °F 75% 30.22 in 10.0 mi NW 5.8 mph - N/A   Overcast
9:53 AM 64.9 °F 55.0 °F 70% 30.21 in 10.0 mi North 6.9 mph - N/A   Scattered Clouds
10:53 AM 66.9 °F 54.0 °F 63% 30.20 in 10.0 mi Variable 5.8 mph - N/A   Clear
11:53 AM 66.9 °F 53.1 °F 61% 30.19 in 10.0 mi NNW 8.1 mph - N/A   Clear
12:53 PM 68.0 °F 54.0 °F 61% 30.19 in 10.0 mi North 5.8 mph - N/A   Clear
1:53 PM 69.1 °F 54.0 °F 58% 30.18 in 10.0 mi NW 8.1 mph - N/A   Clear
2:53 PM 66.9 °F 54.0 °F 63% 30.17 in 10.0 mi WNW 9.2 mph - N/A   Clear
3:53 PM 68.0 °F 54.0 °F 61% 30.16 in 10.0 mi NNW 6.9 mph - N/A   Clear
4:53 PM 68.0 °F 54.0 °F 61% 30.15 in 10.0 mi WNW 8.1 mph - N/A   Clear
5:53 PM 66.0 °F 53.1 °F 63% 30.14 in 10.0 mi NW 11.5 mph - N/A   Clear
6:53 PM 64.9 °F 53.1 °F 65% 30.14 in 10.0 mi WNW 8.1 mph - N/A   Clear
7:53 PM 63.0 °F 51.1 °F 65% 30.14 in 10.0 mi West 10.4 mph - N/A   Clear
8:53 PM 60.1 °F 51.1 °F 72% 30.13 in 10.0 mi WNW 5.8 mph - N/A   Clear
9:53 PM 59.0 °F 52.0 °F 78% 30.14 in 10.0 mi WNW 3.5 mph - N/A   Clear
10:53 PM 55.0 °F 51.1 °F 86% 30.14 in 10.0 mi WNW 8.1 mph - N/A   Clear
11:53 PM 54.0 °F 51.1 °F 90% 30.13 in 10.0 mi NW 6.9 mph - N/A   Clear